Location: Unspecified
(35.6961°N, 0.0000°E)
Time: 03:05:49
(UTC+00:00)

Vanguard 3 - Pass Details

Date: 27 May 2019
Orbit: 508 x 3263 km, 33.3° (Epoch: 16 June)

Event Time Altitude Azimuth Distance (km) Brightness Sun altitude
Rises 03:46:01 0° 272° (W) 5,770 11.0 -11.4°
Reaches altitude 10° 03:51:07 10° 256° (WSW) 5,207 10.7 -10.6°
Maximum altitude 04:01:01 19° 218° (SW) 5,061 10.6 -9.0°
Drops below altitude 10° 04:12:43 10° 181° (S) 6,180 11.3 -7.0°
Sets 04:19:55 0° 166° (SSE) 7,185 11.8 -5.7°
